| time (UTC) | temp F | wind direction | speed MPH | gust MPH | rain 1hr in | rain 24hr in | rain mn in | humidity % | barometer mb |
| 20260510103034 | 47 | 56 | 1.0 | 5.0 | 0.00 | 0.34 | 0.00 | 84 | 1013.4 |
| 20260510101539 | 47 | 342 | 1.0 | 5.0 | 0.00 | 0.34 | 0.00 | 84 | 1013.1 |
| 20260510100035 | 47 | 359 | 0.0 | 7.0 | 0.00 | 0.34 | 0.00 | 83 | 1013.2 |
| 20260510094537 | 48 | 338 | 2.0 | 6.0 | 0.00 | 0.34 | 0.00 | 82 | 1012.9 |
| 20260510093043 | 48 | 301 | 3.0 | 5.0 | 0.00 | 0.34 | 0.00 | 82 | 1012.7 |
| 20260510091536 | 48 | 0 | 0.0 | 1.0 | 0.00 | 0.34 | 0.00 | 85 | 1012.4 |
| 20260510090036 | 47 | 0 | 0.0 | 0.0 | 0.00 | 0.34 | 0.00 | 85 | 1012.2 |
| 20260510084539 | 48 | 0 | 0.0 | 0.0 | 0.00 | 0.34 | 0.00 | 82 | 1011.9 |
| 20260510083044 | 48 | 0 | 0.0 | 0.0 | 0.00 | 0.34 | 0.00 | 81 | 1011.8 |
| 20260510081546 | 48 | 0 | 0.0 | 0.0 | 0.00 | 0.34 | 0.00 | 81 | 1011.6 |
| 20260510080037 | 49 | 0 | 0.0 | 0.0 | 0.00 | 0.34 | 0.00 | 79 | 1011.3 |
| 20260510074537 | 49 | 0 | 0.0 | 0.0 | 0.00 | 0.34 | 0.00 | 78 | 1010.9 |
| 20260510073050 | 50 | 0 | 0.0 | 1.0 | 0.00 | 0.34 | 0.00 | 77 | 1010.9 |
| 20260510071538 | 50 | 321 | 1.0 | 5.0 | 0.00 | 0.34 | 0.00 | 76 | 1010.6 |
| 20260510070040 | 51 | 342 | 2.0 | 7.0 | 0.00 | 0.34 | 0.00 | 75 | 1010.5 |
| 20260510064550 | 51 | 0 | 2.0 | 8.0 | 0.00 | 0.34 | 0.00 | 77 | 1010.2 |
| 20260510063042 | 51 | 360 | 1.0 | 4.0 | 0.00 | 0.34 | 0.00 | 81 | 1010.2 |
| 20260510061541 | 51 | 351 | 1.0 | 10.0 | 0.00 | 0.34 | 0.00 | 82 | 1010.3 |
| 20260510060043 | 51 | 333 | 2.0 | 9.0 | 0.00 | 0.34 | 0.00 | 83 | 1010.2 |
| 20260510054539 | 54 | 18 | 6.0 | 15.0 | 0.00 | 0.34 | 0.00 | 86 | 1009.6 |
| 20260510053043 | 55 | 37 | 0.0 | 3.0 | 0.00 | 0.34 | 0.00 | 89 | 1009.2 |
| 20260510051542 | 55 | 0 | 0.0 | 6.0 | 0.00 | 0.34 | 0.00 | 87 | 1009.1 |
| 20260510050038 | 55 | 310 | 2.0 | 6.0 | 0.00 | 0.34 | 0.00 | 86 | 1008.9 |
| 20260510044617 | 54 | 0 | 1.0 | 3.0 | 0.00 | 0.35 | 0.00 | 90 | 1008.2 |
| 20260510043037 | 54 | 199 | 0.0 | 1.0 | 0.00 | 0.35 | 0.00 | 91 | 1007.7 |
| 20260510041534 | 54 | 0 | 0.0 | 0.0 | 0.00 | 0.35 | 0.00 | 91 | 1007.6 |
| 20260510040043 | 55 | 0 | 0.0 | 2.0 | 0.00 | 0.35 | 0.00 | 88 | 1007.5 |
| 20260510034537 | 56 | 229 | 0.0 | 7.0 | 0.00 | 0.35 | 0.35 | 87 | 1007.5 |
| 20260510033054 | 55 | 165 | 1.0 | 7.0 | 0.00 | 0.35 | 0.35 | 89 | 1007.6 |
| 20260510031539 | 55 | 136 | 1.0 | 5.0 | 0.01 | 0.35 | 0.35 | 90 | 1007.6 |
| 20260510030044 | 54 | 203 | 0.0 | 3.0 | 0.01 | 0.35 | 0.35 | 91 | 1007.6 |
| 20260510024535 | 54 | 0 | 0.0 | 1.0 | 0.01 | 0.35 | 0.35 | 93 | 1007.5 |
| 20260510023037 | 54 | 260 | 1.0 | 9.0 | 0.01 | 0.35 | 0.35 | 94 | 1007.5 |
| 20260510021536 | 54 | 206 | 0.0 | 4.0 | 0.00 | 0.34 | 0.34 | 96 | 1008.0 |
| 20260510020037 | 53 | 0 | 0.0 | 0.0 | 0.00 | 0.34 | 0.34 | 95 | 1007.3 |
| 20260510014539 | 53 | 0 | 0.0 | 0.0 | 0.00 | 0.35 | 0.34 | 95 | 1007.1 |
| 20260510013037 | 53 | 0 | 0.0 | 0.0 | 0.00 | 0.35 | 0.34 | 95 | 1006.8 |
| 20260510011538 | 53 | 0 | 0.0 | 0.0 | 0.00 | 0.35 | 0.34 | 94 | 1006.9 |
| 20260510010037 | 54 | 0 | 0.0 | 0.0 | 0.00 | 0.35 | 0.34 | 94 | 1006.7 |
| 20260510004541 | 54 | 0 | 0.0 | 0.0 | 0.00 | 0.38 | 0.34 | 93 | 1006.5 |
| 20260510003045 | 55 | 0 | 0.0 | 5.0 | 0.00 | 0.38 | 0.34 | 93 | 1006.6 |
| 20260510001537 | 55 | 0 | 1.0 | 5.0 | 0.02 | 0.38 | 0.34 | 93 | 1006.5 |
| 20260510000040 | 55 | 221 | 0.0 | 4.0 | 0.11 | 0.38 | 0.34 | 94 | 1006.5 |
| 20260509234552 | 55 | 213 | 0.0 | 4.0 | 0.21 | 0.44 | 0.34 | 94 | 1006.4 |
| 20260509233041 | 55 | 0 | 1.0 | 5.0 | 0.33 | 0.44 | 0.34 | 93 | 1006.6 |
| 20260509231536 | 55 | 251 | 2.0 | 15.0 | 0.31 | 0.42 | 0.32 | 92 | 1006.5 |
| 20260509230040 | 55 | 217 | 5.0 | 20.0 | 0.22 | 0.33 | 0.23 | 92 | 1006.6 |
| 20260509224536 | 57 | 353 | 16.0 | 35.0 | 0.11 | 0.29 | 0.12 | 86 | 1006.2 |
| 20260509223043 | 69 | 286 | 4.0 | 14.0 | 0.00 | 0.18 | 0.01 | 50 | 1004.3 |
| 20260509221537 | 69 | 163 | 4.0 | 12.0 | 0.00 | 0.18 | 0.01 | 49 | 1003.8 |
| 20260509220038 | 69 | 238 | 4.0 | 15.0 | 0.00 | 0.18 | 0.01 | 51 | 1004.0 |
| 20260509214535 | 71 | 201 | 5.0 | 18.0 | 0.00 | 0.19 | 0.01 | 49 | 1003.9 |
| 20260509213037 | 72 | 221 | 6.0 | 11.0 | 0.00 | 0.19 | 0.01 | 48 | 1003.7 |
| 20260509211536 | 71 | 252 | 5.0 | 12.0 | 0.00 | 0.19 | 0.01 | 49 | 1003.7 |
| 20260509210037 | 71 | 217 | 5.0 | 13.0 | 0.00 | 0.19 | 0.01 | 49 | 1003.8 |
| 20260509204540 | 72 | 147 | 4.0 | 11.0 | 0.00 | 0.19 | 0.01 | 51 | 1004.2 |
| 20260509203034 | 71 | 242 | 3.0 | 10.0 | 0.00 | 0.19 | 0.01 | 51 | 1004.3 |
| 20260509201542 | 71 | 232 | 5.0 | 12.0 | 0.00 | 0.19 | 0.01 | 52 | 1004.7 |
| 20260509200045 | 70 | 195 | 8.0 | 13.0 | 0.00 | 0.19 | 0.01 | 51 | 1004.9 |
| 20260509194537 | 69 | 178 | 5.0 | 14.0 | 0.00 | 0.19 | 0.01 | 51 | 1005.0 |
| 20260509193041 | 69 | 223 | 6.0 | 13.0 | 0.00 | 0.19 | 0.01 | 53 | 1005.2 |
| 20260509191540 | 69 | 203 | 5.0 | 11.0 | 0.00 | 0.19 | 0.01 | 56 | 1005.4 |
| 20260509190037 | 68 | 147 | 4.0 | 9.0 | 0.00 | 0.19 | 0.01 | 57 | 1005.8 |
| 20260509184542 | 68 | 215 | 3.0 | 20.0 | 0.00 | 0.19 | 0.01 | 58 | 1006.0 |
| 20260509183038 | 66 | 205 | 5.0 | 14.0 | 0.00 | 0.19 | 0.01 | 57 | 1006.2 |
| 20260509181544 | 67 | 203 | 4.0 | 10.0 | 0.00 | 0.19 | 0.01 | 58 | 1006.1 |
| 20260509180037 | 67 | 210 | 4.0 | 13.0 | 0.00 | 0.19 | 0.01 | 56 | 1005.9 |
| 20260509174534 | 66 | 210 | 3.0 | 10.0 | 0.00 | 0.19 | 0.01 | 60 | 1006.0 |
| 20260509173042 | 65 | 186 | 5.0 | 14.0 | 0.00 | 0.19 | 0.01 | 60 | 1006.3 |
| 20260509171544 | 66 | 198 | 4.0 | 9.0 | 0.00 | 0.19 | 0.01 | 59 | 1006.2 |
| 20260509170037 | 65 | 248 | 2.0 | 8.0 | 0.00 | 0.19 | 0.01 | 61 | 1006.2 |
| 20260509164537 | 63 | 156 | 3.0 | 13.0 | 0.00 | 0.19 | 0.01 | 64 | 1006.4 |
| 20260509163036 | 63 | 196 | 3.0 | 7.0 | 0.00 | 0.19 | 0.01 | 65 | 1006.2 |
| 20260509161538 | 63 | 204 | 3.0 | 8.0 | 0.00 | 0.19 | 0.01 | 66 | 1006.6 |
| 20260509160038 | 62 | 257 | 3.0 | 9.0 | 0.00 | 0.19 | 0.01 | 67 | 1006.8 |
| 20260509154538 | 62 | 221 | 3.0 | 6.0 | 0.00 | 0.19 | 0.01 | 71 | 1007.0 |
| 20260509153039 | 60 | 261 | 4.0 | 8.0 | 0.00 | 0.19 | 0.01 | 75 | 1007.0 |
| 20260509151537 | 61 | 217 | 1.0 | 8.0 | 0.00 | 0.19 | 0.01 | 75 | 1006.8 |
| 20260509150036 | 59 | 141 | 2.0 | 13.0 | 0.00 | 0.19 | 0.01 | 78 | 1006.8 |
| 20260509144615 | 58 | 273 | 2.0 | 6.0 | 0.00 | 0.19 | 0.01 | 82 | 1006.9 |
| 20260509143046 | 57 | 186 | 2.0 | 6.0 | 0.00 | 0.19 | 0.01 | 84 | 1006.8 |
| 20260509141541 | 57 | 281 | 1.0 | 7.0 | 0.00 | 0.19 | 0.01 | 84 | 1006.7 |
| 20260509140037 | 56 | 198 | 2.0 | 9.0 | 0.00 | 0.19 | 0.01 | 85 | 1007.0 |
| 20260509134537 | 56 | 226 | 1.0 | 6.0 | 0.00 | 0.19 | 0.01 | 87 | 1006.8 |
| 20260509133037 | 55 | 207 | 5.0 | 10.0 | 0.00 | 0.19 | 0.01 | 87 | 1006.9 |
| 20260509131541 | 55 | 226 | 2.0 | 6.0 | 0.00 | 0.19 | 0.01 | 90 | 1007.0 |
| 20260509130036 | 54 | 197 | 1.0 | 4.0 | 0.00 | 0.19 | 0.01 | 91 | 1006.8 |
| 20260509124557 | 54 | 251 | 1.0 | 4.0 | 0.00 | 0.19 | 0.01 | 91 | 1007.0 |
| 20260509123038 | 54 | 227 | 2.0 | 5.0 | 0.00 | 0.19 | 0.01 | 92 | 1007.1 |
| 20260509121536 | 54 | 0 | 0.0 | 6.0 | 0.00 | 0.19 | 0.01 | 92 | 1007.3 |
| 20260509120033 | 53 | 221 | 1.0 | 3.0 | 0.00 | 0.19 | 0.01 | 93 | 1007.3 |
| 20260509114537 | 53 | 0 | 0.0 | 2.0 | 0.00 | 0.19 | 0.01 | 93 | 1007.2 |
| 20260509113037 | 53 | 0 | 0.0 | 2.0 | 0.00 | 0.19 | 0.01 | 93 | 1007.3 |
| 20260509111537 | 52 | 234 | 0.0 | 2.0 | 0.00 | 0.19 | 0.01 | 94 | 1007.2 |
| 20260509110037 | 52 | 162 | 0.0 | 2.0 | 0.00 | 0.19 | 0.01 | 93 | 1007.0 |
| 20260509104537 | 52 | 199 | 0.0 | 2.0 | 0.00 | 0.19 | 0.01 | 93 | 1006.9 |